Time,TemperatureF,DewpointF,PressureIn,WindDirection,WindDirectionDegrees,WindSpeedMPH,WindSpeedGustMPH,Humidity,HourlyPrecipIn,Conditions,Clouds,dailyrainin,SoftwareType,DateUTC
2013-05-01 00:05:00,57.5,53.3,30.13,ESE,113,1.0,4.0,86,0.00,,,0.00,Wunderground v.1.15,2013-05-01 04:05:00,
2013-05-01 00:10:00,57.5,53.3,30.13,East,84,2.0,2.0,86,0.00,,,0.00,Wunderground v.1.15,2013-05-01 04:10:00,
2013-05-01 00:15:00,57.3,53.1,30.13,East,84,1.0,2.0,86,0.00,,,0.00,Wunderground v.1.15,2013-05-01 04:15:00,
2013-05-01 00:20:00,57.2,53.0,30.13,ENE,78,1.0,1.0,86,0.00,,,0.00,Wunderground v.1.15,2013-05-01 04:20:00,
2013-05-01 00:30:00,57.0,52.9,30.13,ENE,78,0.0,0.0,86,0.00,,,0.00,Wunderground v.1.15,2013-05-01 04:30:00,
2013-05-01 00:35:00,57.0,52.9,30.13,ENE,78,0.0,0.0,86,0.00,,,0.00,Wunderground v.1.15,2013-05-01 04:35:00,
2013-05-01 00:40:00,56.9,52.8,30.13,ENE,78,0.0,0.0,86,0.00,,,0.00,Wunderground v.1.15,2013-05-01 04:40:00,
2013-05-01 00:50:00,56.6,52.8,30.13,ENE,76,0.0,4.0,87,0.00,,,0.00,Wunderground v.1.15,2013-05-01 04:50:00,
2013-05-01 01:00:00,56.6,52.8,30.13,ENE,76,1.0,1.0,87,0.00,,,0.00,Wunderground v.1.15,2013-05-01 05:00:00,
2013-05-01 01:10:00,56.3,52.5,30.13,ENE,76,0.0,0.0,87,0.00,,,0.00,Wunderground v.1.15,2013-05-01 05:10:00,
2013-05-01 01:15:00,56.2,52.4,30.13,ENE,76,0.0,0.0,87,0.00,,,0.00,Wunderground v.1.15,2013-05-01 05:15:00,
2013-05-01 01:25:00,55.6,52.1,30.13,ENE,76,0.0,0.0,88,0.00,,,0.00,Wunderground v.1.15,2013-05-01 05:25:00,
2013-05-01 01:35:00,55.4,52.2,30.13,ENE,76,0.0,0.0,89,0.00,,,0.00,Wunderground v.1.15,2013-05-01 05:35:00,
2013-05-01 01:40:00,55.4,52.2,30.13,ENE,76,0.0,0.0,89,0.00,,,0.00,Wunderground v.1.15,2013-05-01 05:40:00,
2013-05-01 01:50:00,55.0,51.8,30.13,ENE,76,0.0,0.0,89,0.00,,,0.00,Wunderground v.1.15,2013-05-01 05:50:00,
2013-05-01 02:00:00,54.5,51.3,30.12,ENE,76,0.0,0.0,89,0.00,,,0.00,Wunderground v.1.15,2013-05-01 06:00:00,
2013-05-01 02:10:00,54.2,51.3,30.12,ENE,76,0.0,0.0,90,0.00,,,0.00,Wunderground v.1.15,2013-05-01 06:10:00,
2013-05-01 02:20:00,54.1,51.2,30.12,ENE,76,0.0,0.0,90,0.00,,,0.00,Wunderground v.1.15,2013-05-01 06:20:00,
2013-05-01 02:30:00,53.8,50.9,30.12,ENE,76,0.0,0.0,90,0.00,,,0.00,Wunderground v.1.15,2013-05-01 06:30:00,
2013-05-01 02:40:00,53.3,50.4,30.13,ENE,76,0.0,0.0,90,0.00,,,0.00,Wunderground v.1.15,2013-05-01 06:40:00,
2013-05-01 02:45:00,53.3,50.7,30.13,ENE,76,0.0,0.0,91,0.00,,,0.00,Wunderground v.1.15,2013-05-01 06:45:00,
2013-05-01 02:50:00,53.3,51.0,30.13,ENE,76,0.0,0.0,92,0.00,,,0.00,Wunderground v.1.15,2013-05-01 06:50:00,
2013-05-01 03:00:00,54.1,51.8,30.13,ENE,76,0.0,0.0,92,0.00,,,0.00,Wunderground v.1.15,2013-05-01 07:00:00,
2013-05-01 03:10:00,54.7,52.1,30.12,ENE,76,0.0,0.0,91,0.00,,,0.00,Wunderground v.1.15,2013-05-01 07:10:00,
2013-05-01 03:20:00,55.3,52.4,30.13,ENE,76,0.0,0.0,90,0.00,,,0.00,Wunderground v.1.15,2013-05-01 07:20:00,
2013-05-01 03:30:00,55.9,53.0,30.13,ENE,76,0.0,0.0,90,0.00,,,0.00,Wunderground v.1.15,2013-05-01 07:30:00,
2013-05-01 03:35:00,56.0,53.1,30.13,ENE,76,0.0,0.0,90,0.00,,,0.00,Wunderground v.1.15,2013-05-01 07:35:00,
2013-05-01 03:45:00,56.3,53.1,30.13,ENE,76,0.0,0.0,89,0.00,,,0.00,Wunderground v.1.15,2013-05-01 07:45:00,
2013-05-01 03:55:00,56.5,53.3,30.13,ENE,76,0.0,0.0,89,0.00,,,0.00,Wunderground v.1.15,2013-05-01 07:55:00,
2013-05-01 04:00:00,56.5,53.3,30.13,ENE,76,0.0,0.0,89,0.00,,,0.00,Wunderground v.1.15,2013-05-01 08:00:00,
2013-05-01 04:10:00,56.6,53.1,30.13,ENE,76,0.0,0.0,88,0.00,,,0.00,Wunderground v.1.15,2013-05-01 08:10:00,
2013-05-01 04:20:00,56.6,53.1,30.13,ENE,74,1.0,1.0,88,0.00,,,0.00,Wunderground v.1.15,2013-05-01 08:20:00,
2013-05-01 04:25:00,56.6,53.1,30.13,ENE,74,1.0,1.0,88,0.00,,,0.00,Wunderground v.1.15,2013-05-01 08:25:00,
2013-05-01 04:35:00,56.5,52.7,30.13,ENE,74,1.0,2.0,87,0.00,,,0.00,Wunderground v.1.15,2013-05-01 08:35:00,
2013-05-01 04:40:00,56.2,52.4,30.13,ENE,74,1.0,3.0,87,0.00,,,0.00,Wunderground v.1.15,2013-05-01 08:40:00,
2013-05-01 04:50:00,56.0,51.9,30.13,NE,51,2.0,2.0,86,0.00,,,0.00,Wunderground v.1.15,2013-05-01 08:50:00,
2013-05-01 05:00:00,55.6,51.5,30.13,NNE,33,1.0,1.0,86,0.00,,,0.00,Wunderground v.1.15,2013-05-01 09:00:00,
2013-05-01 05:05:00,55.4,51.6,30.13,NE,56,1.0,1.0,87,0.00,,,0.00,Wunderground v.1.15,2013-05-01 09:05:00,
2013-05-01 05:15:00,55.1,51.3,30.14,NE,44,0.0,1.0,87,0.00,,,0.00,Wunderground v.1.15,2013-05-01 09:15:00,
2013-05-01 05:20:00,55.1,51.3,30.14,NE,41,0.0,4.0,87,0.00,,,0.00,Wunderground v.1.15,2013-05-01 09:20:00,
2013-05-01 05:30:00,55.4,51.3,30.14,NNE,33,2.0,2.0,86,0.00,,,0.00,Wunderground v.1.15,2013-05-01 09:30:00,
2013-05-01 05:40:00,55.6,51.5,30.14,NNE,27,1.0,3.0,86,0.00,,,0.00,Wunderground v.1.15,2013-05-01 09:40:00,
2013-05-01 05:50:00,55.6,51.2,30.14,NNE,33,2.0,2.0,85,0.00,,,0.00,Wunderground v.1.15,2013-05-01 09:50:00,
2013-05-01 05:55:00,55.6,51.2,30.14,NE,42,2.0,2.0,85,0.00,,,0.00,Wunderground v.1.15,2013-05-01 09:55:00,
2013-05-01 06:00:00,55.6,51.2,30.15,NNE,32,2.0,2.0,85,0.00,,,0.00,Wunderground v.1.15,2013-05-01 10:00:00,
2013-05-01 06:10:00,55.4,50.6,30.15,NE,40,2.0,3.0,84,0.00,,,0.00,Wunderground v.1.15,2013-05-01 10:10:00,
2013-05-01 06:15:00,55.3,50.5,30.15,NNE,31,3.0,4.0,84,0.00,,,0.00,Wunderground v.1.15,2013-05-01 10:15:00,
2013-05-01 06:20:00,55.0,50.3,30.15,NNE,28,2.0,2.0,84,0.00,,,0.00,Wunderground v.1.15,2013-05-01 10:20:00,
2013-05-01 06:25:00,55.0,50.3,30.15,NNE,30,2.0,2.0,84,0.00,,,0.00,Wunderground v.1.15,2013-05-01 10:25:00,
2013-05-01 06:30:00,54.8,50.4,30.16,NNE,30,1.0,1.0,85,0.00,,,0.00,Wunderground v.1.15,2013-05-01 10:30:00,
2013-05-01 06:35:00,54.5,50.1,30.16,NNE,30,0.0,1.0,85,0.00,,,0.00,Wunderground v.1.15,2013-05-01 10:35:00,
2013-05-01 06:40:00,54.4,50.0,30.16,NNE,30,0.0,5.0,85,0.00,,,0.00,Wunderground v.1.15,2013-05-01 10:40:00,
2013-05-01 06:50:00,54.2,49.8,30.17,NNE,29,1.0,1.0,85,0.00,,,0.00,Wunderground v.1.15,2013-05-01 10:50:00,
2013-05-01 07:00:00,54.1,49.7,30.17,NNE,28,1.0,1.0,85,0.00,,,0.00,Wunderground v.1.15,2013-05-01 11:00:00,
2013-05-01 07:05:00,54.2,49.8,30.17,NNE,28,1.0,3.0,85,0.00,,,0.00,Wunderground v.1.15,2013-05-01 11:05:00,
2013-05-01 07:10:00,54.4,50.0,30.18,NNE,22,1.0,2.0,85,0.00,,,0.00,Wunderground v.1.15,2013-05-01 11:10:00,
2013-05-01 07:15:00,54.5,50.1,30.18,NNE,24,2.0,2.0,85,0.00,,,0.00,Wunderground v.1.15,2013-05-01 11:15:00,
2013-05-01 07:20:00,54.7,50.3,30.18,NNE,28,2.0,2.0,85,0.00,,,0.00,Wunderground v.1.15,2013-05-01 11:20:00,
2013-05-01 07:25:00,55.0,50.3,30.18,NE,34,3.0,5.0,84,0.00,,,0.00,Wunderground v.1.15,2013-05-01 11:25:00,
2013-05-01 07:30:00,55.4,50.3,30.19,NE,35,4.0,4.0,83,0.00,,,0.00,Wunderground v.1.15,2013-05-01 11:30:00,
2013-05-01 07:40:00,55.6,50.5,30.19,NE,41,3.0,5.0,83,0.00,,,0.00,Wunderground v.1.15,2013-05-01 11:40:00,
2013-05-01 07:45:00,55.7,50.3,30.19,NNE,24,5.0,5.0,82,0.00,,,0.00,Wunderground v.1.15,2013-05-01 11:45:00,
2013-05-01 07:50:00,55.9,50.5,30.20,NNE,23,6.0,9.0,82,0.00,,,0.00,Wunderground v.1.15,2013-05-01 11:50:00,
2013-05-01 08:00:00,56.2,50.4,30.20,North,5,5.0,5.0,81,0.00,,,0.00,Wunderground v.1.15,2013-05-01 12:00:00,
2013-05-01 08:10:00,56.6,50.5,30.20,NNE,22,7.0,7.0,80,0.00,,,0.00,Wunderground v.1.15,2013-05-01 12:10:00,
2013-05-01 08:15:00,56.7,50.3,30.20,NE,34,7.0,7.0,79,0.00,,,0.00,Wunderground v.1.15,2013-05-01 12:15:00,
2013-05-01 08:25:00,57.0,50.5,30.20,NNE,24,5.0,6.0,79,0.00,,,0.00,Wunderground v.1.15,2013-05-01 12:25:00,
2013-05-01 08:30:00,57.2,50.7,30.21,NE,47,5.0,5.0,79,0.00,,,0.00,Wunderground v.1.15,2013-05-01 12:30:00,
2013-05-01 08:35:00,57.0,50.5,30.21,NNE,32,6.0,11.0,79,0.00,,,0.00,Wunderground v.1.15,2013-05-01 12:35:00,
2013-05-01 08:40:00,56.9,50.5,30.21,NE,43,7.0,7.0,79,0.00,,,0.00,Wunderground v.1.15,2013-05-01 12:40:00,
2013-05-01 08:50:00,57.0,50.5,30.21,NE,38,7.0,7.0,79,0.00,,,0.00,Wunderground v.1.15,2013-05-01 12:50:00,
2013-05-01 08:55:00,57.0,50.9,30.21,North,5,8.0,8.0,80,0.00,,,0.00,Wunderground v.1.15,2013-05-01 12:55:00,
2013-05-01 09:00:00,56.9,50.5,30.21,NNE,15,8.0,9.0,79,0.00,,,0.00,Wunderground v.1.15,2013-05-01 13:00:00,
2013-05-01 09:10:00,56.5,50.4,30.21,NNE,32,7.0,8.0,80,0.00,,,0.00,Wunderground v.1.15,2013-05-01 13:10:00,
2013-05-01 09:20:00,56.6,50.2,30.21,NNE,22,6.0,6.0,79,0.00,,,0.00,Wunderground v.1.15,2013-05-01 13:20:00,
2013-05-01 09:30:00,57.5,50.3,30.21,NE,43,7.0,8.0,77,0.00,,,0.00,Wunderground v.1.15,2013-05-01 13:30:00,
2013-05-01 09:35:00,57.5,50.3,30.21,NE,49,8.0,8.0,77,0.00,,,0.00,Wunderground v.1.15,2013-05-01 13:35:00,
2013-05-01 09:45:00,57.8,50.6,30.21,NNE,17,6.0,8.0,77,0.00,,,0.00,Wunderground v.1.15,2013-05-01 13:45:00,
2013-05-01 09:50:00,58.1,50.6,30.21,NE,42,7.0,8.0,76,0.00,,,0.00,Wunderground v.1.15,2013-05-01 13:50:00,
2013-05-01 10:00:00,58.9,51.3,30.21,NE,51,8.0,8.0,76,0.00,,,0.00,Wunderground v.1.15,2013-05-01 14:00:00,
2013-05-01 10:10:00,59.0,51.4,30.22,NE,38,6.0,6.0,76,0.00,,,0.00,Wunderground v.1.15,2013-05-01 14:10:00,
2013-05-01 10:20:00,59.0,51.4,30.22,NE,56,7.0,7.0,76,0.00,,,0.00,Wunderground v.1.15,2013-05-01 14:20:00,
2013-05-01 10:30:00,60.2,51.5,30.22,NE,55,8.0,11.0,73,0.00,,,0.00,Wunderground v.1.15,2013-05-01 14:30:00,
2013-05-01 10:40:00,60.7,52.0,30.22,NE,40,7.0,7.0,73,0.00,,,0.00,Wunderground v.1.15,2013-05-01 14:40:00,
2013-05-01 10:50:00,61.0,52.3,30.22,NNE,15,7.0,7.0,73,0.00,,,0.00,Wunderground v.1.15,2013-05-01 14:50:00,
2013-05-01 10:55:00,61.0,52.3,30.22,NE,34,8.0,8.0,73,0.00,,,0.00,Wunderground v.1.15,2013-05-01 14:55:00,
2013-05-01 11:05:00,61.3,52.2,30.22,NE,34,6.0,7.0,72,0.00,,,0.00,Wunderground v.1.15,2013-05-01 15:05:00,
2013-05-01 11:10:00,61.3,52.6,30.22,NNE,15,6.0,6.0,73,0.00,,,0.00,Wunderground v.1.15,2013-05-01 15:10:00,
2013-05-01 11:20:00,61.5,53.1,30.22,NNE,23,7.0,8.0,74,0.00,,,0.00,Wunderground v.1.15,2013-05-01 15:20:00,
2013-05-01 11:30:00,61.8,53.4,30.22,NE,34,7.0,10.0,74,0.00,,,0.00,Wunderground v.1.15,2013-05-01 15:30:00,
2013-05-01 11:40:00,61.2,52.8,30.23,NNE,33,6.0,6.0,74,0.00,,,0.00,Wunderground v.1.15,2013-05-01 15:40:00,
2013-05-01 11:50:00,61.3,53.3,30.23,NE,38,6.0,6.0,75,0.00,,,0.00,Wunderground v.1.15,2013-05-01 15:50:00,
2013-05-01 12:00:00,62.7,53.9,30.23,ENE,59,6.0,10.0,73,0.00,,,0.00,Wunderground v.1.15,2013-05-01 16:00:00,
2013-05-01 12:10:00,63.1,53.5,30.23,NNE,26,9.0,9.0,71,0.00,,,0.00,Wunderground v.1.15,2013-05-01 16:10:00,
2013-05-01 12:20:00,63.1,53.2,30.23,NNE,22,7.0,7.0,70,0.00,,,0.00,Wunderground v.1.15,2013-05-01 16:20:00,
2013-05-01 12:25:00,63.2,54.8,30.23,NNE,13,6.0,7.0,74,0.00,,,0.00,Wunderground v.1.15,2013-05-01 16:25:00,
2013-05-01 12:30:00,63.7,53.3,30.24,NE,43,6.0,7.0,69,0.00,,,0.00,Wunderground v.1.15,2013-05-01 16:30:00,
2013-05-01 12:40:00,63.7,55.6,30.23,NNE,19,7.0,7.0,75,0.00,,,0.00,Wunderground v.1.15,2013-05-01 16:40:00,
2013-05-01 12:45:00,63.5,53.9,30.22,North,9,7.0,9.0,71,0.00,,,0.00,Wunderground v.1.15,2013-05-01 16:45:00,
2013-05-01 12:55:00,64.0,55.2,30.22,NE,56,8.0,11.0,73,0.00,,,0.00,Wunderground v.1.15,2013-05-01 16:55:00,
2013-05-01 13:05:00,63.9,53.1,30.21,NNE,32,8.0,14.0,68,0.00,,,0.00,Wunderground v.1.15,2013-05-01 17:05:00,
2013-05-01 13:10:00,64.0,54.8,30.21,NNE,22,8.0,8.0,72,0.00,,,0.00,Wunderground v.1.15,2013-05-01 17:10:00,
2013-05-01 13:20:00,65.2,55.2,30.21,NE,44,8.0,10.0,70,0.00,,,0.00,Wunderground v.1.15,2013-05-01 17:20:00,
2013-05-01 13:30:00,65.2,54.8,30.20,NNE,17,7.0,10.0,69,0.00,,,0.00,Wunderground v.1.15,2013-05-01 17:30:00,
2013-05-01 13:40:00,66.1,54.4,30.20,North,360,5.0,8.0,66,0.00,,,0.00,Wunderground v.1.15,2013-05-01 17:40:00,
2013-05-01 13:50:00,65.6,54.8,30.20,NNE,32,5.0,5.0,68,0.00,,,0.00,Wunderground v.1.15,2013-05-01 17:50:00,
2013-05-01 13:55:00,65.8,54.1,30.20,ESE,104,3.0,5.0,66,0.00,,,0.00,Wunderground v.1.15,2013-05-01 17:55:00,
2013-05-01 14:05:00,66.0,54.7,30.19,ENE,71,4.0,4.0,67,0.00,,,0.00,Wunderground v.1.15,2013-05-01 18:05:00,
2013-05-01 14:10:00,66.3,55.0,30.19,ENE,59,3.0,7.0,67,0.00,,,0.00,Wunderground v.1.15,2013-05-01 18:10:00,
2013-05-01 14:20:00,67.1,54.9,30.19,NE,51,3.0,8.0,65,0.00,,,0.00,Wunderground v.1.15,2013-05-01 18:20:00,
2013-05-01 14:30:00,67.1,54.1,30.19,NE,48,5.0,5.0,63,0.00,,,0.00,Wunderground v.1.15,2013-05-01 18:30:00,
2013-05-01 14:35:00,67.4,53.9,30.18,NE,34,4.0,8.0,62,0.00,,,0.00,Wunderground v.1.15,2013-05-01 18:35:00,
2013-05-01 14:40:00,67.4,52.6,30.18,NE,54,5.0,14.0,59,0.00,,,0.00,Wunderground v.1.15,2013-05-01 18:40:00,
2013-05-01 14:50:00,66.8,53.4,30.19,North,10,6.0,7.0,62,0.00,,,0.00,Wunderground v.1.15,2013-05-01 18:50:00,
2013-05-01 15:00:00,66.1,53.1,30.18,North,5,2.0,3.0,63,0.00,,,0.00,Wunderground v.1.15,2013-05-01 19:00:00,
2013-05-01 15:10:00,66.8,53.4,30.18,NNE,28,3.0,4.0,62,0.00,,,0.00,Wunderground v.1.15,2013-05-01 19:10:00,
2013-05-01 15:20:00,66.8,54.2,30.19,NE,34,2.0,8.0,64,0.00,,,0.00,Wunderground v.1.15,2013-05-01 19:20:00,
2013-05-01 15:30:00,67.1,53.6,30.19,NE,50,3.0,3.0,62,0.00,,,0.00,Wunderground v.1.15,2013-05-01 19:30:00,
2013-05-01 15:35:00,67.1,52.3,30.18,NE,54,2.0,3.0,59,0.00,,,0.00,Wunderground v.1.15,2013-05-01 19:35:00,
2013-05-01 15:40:00,67.4,53.0,30.18,NNE,19,3.0,3.0,60,0.00,,,0.00,Wunderground v.1.15,2013-05-01 19:40:00,
2013-05-01 15:50:00,66.9,53.5,30.18,NNE,31,3.0,3.0,62,0.00,,,0.00,Wunderground v.1.15,2013-05-01 19:50:00,
2013-05-01 15:55:00,67.1,52.3,30.18,NNE,13,2.0,6.0,59,0.00,,,0.00,Wunderground v.1.15,2013-05-01 19:55:00,
2013-05-01 16:05:00,67.3,52.9,30.18,ENE,59,3.0,4.0,60,0.00,,,0.00,Wunderground v.1.15,2013-05-01 20:05:00,
2013-05-01 16:10:00,66.9,53.0,30.19,NNE,30,2.0,4.0,61,0.00,,,0.00,Wunderground v.1.15,2013-05-01 20:10:00,
2013-05-01 16:15:00,66.6,50.9,30.19,NE,36,3.0,4.0,57,0.00,,,0.00,Wunderground v.1.15,2013-05-01 20:15:00,
2013-05-01 16:20:00,66.8,51.5,30.19,ENE,63,3.0,7.0,58,0.00,,,0.00,Wunderground v.1.15,2013-05-01 20:20:00,
2013-05-01 16:30:00,66.8,52.0,30.19,East,82,3.0,3.0,59,0.00,,,0.00,Wunderground v.1.15,2013-05-01 20:30:00,
2013-05-01 16:40:00,66.4,51.6,30.19,NE,49,3.0,5.0,59,0.00,,,0.00,Wunderground v.1.15,2013-05-01 20:40:00,
2013-05-01 16:45:00,66.4,52.5,30.19,NE,42,4.0,5.0,61,0.00,,,0.00,Wunderground v.1.15,2013-05-01 20:45:00,
2013-05-01 16:50:00,66.4,51.2,30.19,NE,50,5.0,5.0,58,0.00,,,0.00,Wunderground v.1.15,2013-05-01 20:50:00,
2013-05-01 17:00:00,67.1,51.8,30.19,NNE,31,3.0,4.0,58,0.00,,,0.00,Wunderground v.1.15,2013-05-01 21:00:00,
2013-05-01 17:10:00,66.6,52.3,30.18,NE,46,5.0,6.0,60,0.00,,,0.00,Wunderground v.1.15,2013-05-01 21:10:00,
2013-05-01 17:20:00,66.6,52.3,30.18,NE,52,5.0,5.0,60,0.00,,,0.00,Wunderground v.1.15,2013-05-01 21:20:00,
2013-05-01 17:30:00,66.4,52.5,30.19,NE,46,4.0,5.0,61,0.00,,,0.00,Wunderground v.1.15,2013-05-01 21:30:00,
2013-05-01 17:40:00,66.0,52.2,30.18,NE,46,5.0,6.0,61,0.00,,,0.00,Wunderground v.1.15,2013-05-01 21:40:00,
2013-05-01 17:50:00,65.8,51.5,30.18,NNE,24,6.0,13.0,60,0.00,,,0.00,Wunderground v.1.15,2013-05-01 21:50:00,
2013-05-01 17:55:00,65.6,51.8,30.18,East,85,6.0,13.0,61,0.00,,,0.00,Wunderground v.1.15,2013-05-01 21:55:00,
2013-05-01 18:05:00,65.2,51.4,30.18,ENE,65,5.0,7.0,61,0.00,,,0.00,Wunderground v.1.15,2013-05-01 22:05:00,
2013-05-01 18:15:00,64.8,52.3,30.18,NNE,23,4.0,5.0,64,0.00,,,0.00,Wunderground v.1.15,2013-05-01 22:15:00,
2013-05-01 18:20:00,64.7,51.8,30.18,NNE,25,3.0,5.0,63,0.00,,,0.00,Wunderground v.1.15,2013-05-01 22:20:00,
2013-05-01 18:30:00,64.3,52.3,30.18,NE,47,2.0,2.0,65,0.00,,,0.00,Wunderground v.1.15,2013-05-01 22:30:00,
2013-05-01 18:40:00,64.2,52.2,30.18,NE,51,2.0,2.0,65,0.00,,,0.00,Wunderground v.1.15,2013-05-01 22:40:00,
2013-05-01 18:50:00,63.9,52.7,30.18,NNE,30,1.0,3.0,67,0.00,,,0.00,Wunderground v.1.15,2013-05-01 22:50:00,
2013-05-01 19:00:00,63.7,52.9,30.18,NE,49,1.0,6.0,68,0.00,,,0.00,Wunderground v.1.15,2013-05-01 23:00:00,
2013-05-01 19:10:00,63.4,52.7,30.19,NNE,22,2.0,2.0,68,0.00,,,0.00,Wunderground v.1.15,2013-05-01 23:10:00,
2013-05-01 19:15:00,63.2,52.1,30.19,NE,45,1.0,2.0,67,0.00,,,0.00,Wunderground v.1.15,2013-05-01 23:15:00,
2013-05-01 19:25:00,63.1,52.4,30.19,NNE,16,2.0,6.0,68,0.00,,,0.00,Wunderground v.1.15,2013-05-01 23:25:00,
2013-05-01 19:30:00,62.9,52.2,30.19,NE,34,2.0,2.0,68,0.00,,,0.00,Wunderground v.1.15,2013-05-01 23:30:00,
2013-05-01 19:40:00,62.6,52.7,30.19,NNE,28,1.0,3.0,70,0.00,,,0.00,Wunderground v.1.15,2013-05-01 23:40:00,
2013-05-01 19:50:00,62.3,52.0,30.19,NE,38,3.0,3.0,69,0.00,,,0.00,Wunderground v.1.15,2013-05-01 23:50:00,
2013-05-01 20:00:00,62.1,52.2,30.19,NNE,26,2.0,2.0,70,0.00,,,0.00,Wunderground v.1.15,2013-05-02 00:00:00,
2013-05-01 20:10:00,62.0,52.1,30.20,NE,38,1.0,1.0,70,0.00,,,0.00,Wunderground v.1.15,2013-05-02 00:10:00,
2013-05-01 20:15:00,61.8,52.3,30.20,NNE,29,1.0,1.0,71,0.00,,,0.00,Wunderground v.1.15,2013-05-02 00:15:00,
2013-05-01 20:20:00,61.6,52.1,30.20,NE,35,0.0,3.0,71,0.00,,,0.00,Wunderground v.1.15,2013-05-02 00:20:00,
2013-05-01 20:25:00,61.6,52.5,30.20,NNE,26,1.0,3.0,72,0.00,,,0.00,Wunderground v.1.15,2013-05-02 00:25:00,
2013-05-01 20:30:00,61.3,52.2,30.20,NNE,30,1.0,1.0,72,0.00,,,0.00,Wunderground v.1.15,2013-05-02 00:30:00,
2013-05-01 20:40:00,61.3,52.2,30.21,NNE,29,1.0,1.0,72,0.00,,,0.00,Wunderground v.1.15,2013-05-02 00:40:00,
2013-05-01 20:50:00,61.2,52.1,30.21,NE,40,1.0,1.0,72,0.00,,,0.00,Wunderground v.1.15,2013-05-02 00:50:00,
2013-05-01 20:55:00,61.0,51.9,30.21,NE,56,1.0,3.0,72,0.00,,,0.00,Wunderground v.1.15,2013-05-02 00:55:00,
2013-05-01 21:05:00,60.9,51.4,30.22,NE,54,1.0,1.0,71,0.00,,,0.00,Wunderground v.1.15,2013-05-02 01:05:00,
2013-05-01 21:10:00,60.9,51.8,30.22,NE,54,0.0,0.0,72,0.00,,,0.00,Wunderground v.1.15,2013-05-02 01:10:00,
2013-05-01 21:15:00,60.9,51.8,30.22,NE,46,0.0,0.0,72,0.00,,,0.00,Wunderground v.1.15,2013-05-02 01:15:00,
2013-05-01 21:20:00,60.7,52.0,30.22,NE,47,0.0,0.0,73,0.00,,,0.00,Wunderground v.1.15,2013-05-02 01:20:00,
2013-05-01 21:34:00,60.5,52.2,30.23,ENE,66,2.0,2.0,74,0.00,,,0.00,Wunderground v.1.15,2013-05-02 01:34:00,
2013-05-01 21:39:00,60.4,52.1,30.23,NE,53,1.0,5.0,74,0.00,,,0.00,Wunderground v.1.15,2013-05-02 01:39:00,
2013-05-01 21:49:00,60.2,52.2,30.23,ENE,64,2.0,3.0,75,0.00,,,0.00,Wunderground v.1.15,2013-05-02 01:49:00,
2013-05-01 22:00:00,59.9,52.0,30.23,NE,42,2.0,2.0,75,0.00,,,0.00,Wunderground v.1.15,2013-05-02 02:00:00,
2013-05-01 22:10:00,59.6,52.0,30.24,NE,53,2.0,2.0,76,0.00,,,0.00,Wunderground v.1.15,2013-05-02 02:10:00,
2013-05-01 22:20:00,59.5,51.6,30.23,ENE,59,2.0,3.0,75,0.00,,,0.00,Wunderground v.1.15,2013-05-02 02:20:00,
2013-05-01 22:30:00,59.2,51.3,30.24,ESE,105,1.0,1.0,75,0.00,,,0.00,Wunderground v.1.15,2013-05-02 02:30:00,
2013-05-01 22:35:00,59.0,51.4,30.24,ESE,109,1.0,1.0,76,0.00,,,0.00,Wunderground v.1.15,2013-05-02 02:35:00,
2013-05-01 22:40:00,58.7,50.8,30.24,NE,53,2.0,4.0,75,0.00,,,0.00,Wunderground v.1.15,2013-05-02 02:40:00,
2013-05-01 22:50:00,58.6,50.0,30.24,NE,56,5.0,7.0,73,0.00,,,0.00,Wunderground v.1.15,2013-05-02 02:50:00,
2013-05-01 23:00:00,58.1,49.9,30.24,NE,49,3.0,3.0,74,0.00,,,0.00,Wunderground v.1.15,2013-05-02 03:00:00,
2013-05-01 23:10:00,57.5,49.6,30.24,NE,46,3.0,4.0,75,0.00,,,0.00,Wunderground v.1.15,2013-05-02 03:10:00,
2013-05-01 23:15:00,57.2,49.3,30.24,NE,43,4.0,8.0,75,0.00,,,0.00,Wunderground v.1.15,2013-05-02 03:15:00,
2013-05-01 23:20:00,57.0,49.5,30.24,ENE,58,5.0,5.0,76,0.00,,,0.00,Wunderground v.1.15,2013-05-02 03:20:00,
2013-05-01 23:30:00,56.3,49.2,30.24,NNE,24,6.0,6.0,77,0.00,,,0.00,Wunderground v.1.15,2013-05-02 03:30:00,
2013-05-01 23:40:00,55.7,48.9,30.24,NNE,32,6.0,6.0,78,0.00,,,0.00,Wunderground v.1.15,2013-05-02 03:40:00,
2013-05-01 23:45:00,55.6,49.2,30.24,ENE,61,5.0,7.0,79,0.00,,,0.00,Wunderground v.1.15,2013-05-02 03:45:00,
2013-05-01 23:50:00,55.3,48.9,30.24,NE,49,5.0,7.0,79,0.00,,,0.00,Wunderground v.1.15,2013-05-02 03:50:00,